LU8FJH-13 Weather Reports


time (UTC)temp
F
wind
direction
speed
knots
gust
knots
rain 1hr
in
rain 24hr
in
rain mn
in
humidity
%
barometer
mb
20260507224604 60 90 1.7 7.8 0.00 0.94 0.94 53 1007.2
20260507223704 60 90 1.7 6.1 0.00 0.94 0.94 53 1007.0
20260507222804 60 90 4.3 7.8 0.00 0.94 0.94 53 1006.9
20260507221904 60 90 3.5 7.8 0.00 0.94 0.94 53 1006.6
20260507221005 60 90 1.7 6.1 0.00 0.94 0.94 53 1006.4
20260507220104 60 90 1.7 8.7 0.00 0.94 0.94 53 1006.3
20260507215204 60 90 1.7 8.7 0.00 0.94 0.94 53 1005.9
20260507214304 61 90 2.6 7.0 0.00 0.94 0.94 53 1005.9
20260507213404 61 90 1.7 6.1 0.00 0.94 0.94 52 1005.8
20260507212504 61 90 1.7 8.7 0.00 0.94 0.94 51 1005.6
20260507211604 61 78 3.5 8.7 0.00 0.94 0.94 51 1005.6
20260507210704 61 127 3.5 12.2 0.00 0.94 0.94 51 1005.2
20260507205804 61 95 3.5 7.0 0.00 0.94 0.94 51 1005.3
20260507204904 62 115 1.7 7.8 0.00 0.94 0.94 51 1005.3
20260507204004 62 97 3.5 8.7 0.00 0.94 0.94 50 1005.6
20260507203104 62 116 5.2 9.6 0.00 0.94 0.94 50 1005.4
20260507202204 62 115 2.6 9.6 0.00 0.94 0.94 49 1005.7
20260507201304 63 96 3.5 10.4 0.00 0.94 0.94 48 1005.6
20260507200404 63 136 1.7 12.2 0.00 0.94 0.94 47 1005.3
20260507195504 63 128 6.1 12.2 0.00 0.94 0.94 47 1005.6
20260507194604 63 161 3.5 16.5 0.00 0.94 0.94 45 1005.6
20260507193704 64 144 3.5 11.3 0.00 0.94 0.94 45 1005.4
20260507192804 64 134 7.0 11.3 0.00 0.94 0.94 44 1004.8
20260507191904 65 105 3.5 9.6 0.00 0.94 0.94 43 1004.5
20260507191004 66 106 5.2 11.3 0.00 0.94 0.94 43 1003.9
20260507190104 65 157 2.6 13.9 0.00 0.94 0.94 42 1003.8
20260507185204 66 131 4.3 13.9 0.00 0.94 0.94 41 1003.7
20260507184304 66 110 3.5 10.4 0.00 0.94 0.94 41 1003.7
20260507183404 66 164 2.6 9.6 0.00 0.94 0.94 43 1003.1
20260507182504 64 211 3.5 13.0 0.00 0.94 0.94 47 1003.7
20260507181604 64 154 5.2 9.6 0.00 0.94 0.94 48 1004.3
20260507180704 64 133 1.7 9.6 0.00 0.94 0.94 50 1004.5
20260507175804 61 99 4.3 9.6 0.00 0.94 0.94 52 1004.4
20260507174904 61 163 2.6 8.7 0.00 0.94 0.94 53 1004.9
20260507174004 61 156 3.5 7.0 0.00 0.94 0.94 54 1005.3
20260507173104 61 188 1.7 9.6 0.00 0.94 0.94 53 1005.5
20260507172204 61 210 3.5 11.3 0.00 0.94 0.94 53 1006.2
20260507171304 61 179 3.5 9.6 0.00 0.94 0.94 53 1006.2
20260507170404 61 211 5.2 8.7 0.00 0.94 0.94 54 1006.6
20260507165504 60 142 1.7 9.6 0.00 0.94 0.94 56 1006.9
20260507164604 60 152 1.7 10.4 0.00 0.94 0.94 56 1006.8
20260507163704 60 147 3.5 13.9 0.00 0.94 0.94 56 1006.4
20260507162804 60 161 3.5 12.2 0.00 0.94 0.94 58 1006.7
20260507161903 60 151 1.7 9.6 0.00 0.94 0.94 58 1006.2
20260507161004 60 196 3.5 8.7 0.00 0.94 0.94 58 1005.6
20260507160104 60 176 3.5 9.6 0.00 0.94 0.94 59 1005.9
20260507155204 60 171 1.7 10.4 0.00 0.94 0.94 60 1005.4
20260507154303 60 135 1.7 7.8 0.00 0.94 0.94 61 1004.8
20260507153403 60 135 3.5 7.8 0.00 0.94 0.94 62 1005.5
20260507152504 60 135 2.6 7.0 0.00 0.94 0.94 63 1006.2
20260507151603 60 135 3.5 7.8 0.00 0.94 0.94 62 1006.9
20260507150704 60 132 3.5 9.6 0.00 0.94 0.94 61 1007.4
20260507145803 60 139 3.5 8.7 0.00 0.94 0.94 61 1007.9
20260507144904 60 146 1.7 8.7 0.00 0.94 0.94 61 1008.0
20260507144004 60 159 2.6 7.8 0.00 0.94 0.94 60 1007.9
20260507143103 60 190 2.6 7.8 0.00 0.94 0.94 60 1006.6
20260507142204 60 186 3.5 11.3 0.00 0.94 0.94 61 1005.8
20260507141304 61 173 4.3 11.3 0.00 0.94 0.94 61 1006.3
20260507140403 61 179 1.7 7.0 0.00 0.94 0.94 61 1006.0
20260507135504 61 161 3.5 9.6 0.00 0.94 0.94 60 1006.1
20260507134603 61 108 3.5 12.2 0.00 0.94 0.94 60 1005.8
20260507133704 61 164 3.5 12.2 0.00 0.94 0.94 61 1005.4
20260507132803 62 121 4.3 8.7 0.00 0.94 0.94 61 1005.3
20260507131903 61 151 1.7 8.7 0.00 0.94 0.94 62 1005.7
20260507131003 61 83 4.3 9.6 0.00 0.94 0.94 64 1006.1
20260507130103 61 155 3.5 9.6 0.00 0.94 0.94 66 1006.3
20260507125203 62 182 5.2 7.0 0.00 0.94 0.94 65 1006.2
20260507124304 62 201 1.7 7.0 0.00 0.94 0.94 64 1005.7
20260507123403 62 110 1.7 7.0 0.00 0.94 0.94 63 1005.7
20260507122504 62 150 1.7 9.6 0.00 0.94 0.94 62 1005.5
20260507121603 62 139 3.5 9.6 0.00 0.94 0.94 63 1005.2
20260507120703 62 88 1.7 5.2 0.00 0.94 0.94 63 1004.6
20260507115803 62 111 0.9 7.0 0.00 0.94 0.94 62 1004.5
20260507114904 63 106 0.9 7.0 0.00 0.94 0.94 62 1004.4
20260507114003 63 140 0.9 4.3 0.00 0.94 0.94 63 1005.4
20260507113103 63 91 1.7 5.2 0.00 0.94 0.94 64 1004.7
20260507112203 63 77 2.6 7.0 0.00 0.94 0.94 63 1003.7
20260507111303 64 144 0.9 7.8 0.00 0.94 0.94 65 1004.5
20260507110403 64 146 2.6 9.6 0.00 0.94 0.94 69 1003.8
20260507105503 64 144 3.5 14.8 0.00 0.94 0.94 71 1002.0
20260507104603 64 132 5.2 12.2 0.00 0.94 0.94 78 1002.0
20260507103703 64 135 5.2 11.3 0.00 0.94 0.94 81 1001.6
20260507102803 64 165 6.1 10.4 0.00 0.94 0.94 86 1001.2
20260507101903 65 207 6.1 13.0 0.00 0.94 0.94 85 1000.4
20260507101003 65 153 7.0 13.0 0.00 0.94 0.94 84 1001.2
20260507100103 65 156 4.3 13.0 0.00 0.94 0.94 84 1001.7
20260507095203 65 141 3.5 9.6 0.00 0.94 0.94 84 1002.7
20260507094303 65 158 4.3 10.4 0.00 0.94 0.94 84 1002.4
20260507093403 66 152 3.5 11.3 0.00 0.94 0.94 84 1002.2
20260507092503 66 140 3.5 13.9 0.00 0.94 0.94 85 1002.2
20260507091603 66 139 5.2 10.4 0.00 0.94 0.94 87 1002.4
20260507090703 66 126 1.7 7.0 0.00 0.94 0.94 88 1002.9
20260507085803 66 151 3.5 7.0 0.00 0.94 0.94 92 1003.2
20260507084903 66 179 1.7 7.0 0.00 0.94 0.94 93 1003.3
20260507084003 66 117 3.5 7.0 0.00 0.94 0.94 94 1003.7
20260507083103 67 135 2.6 7.0 0.00 0.94 0.94 95 1003.2
20260507082203 66 148 1.7 3.5 0.00 0.94 0.94 95 1003.0
20260507081303 67 134 0.9 7.0 0.00 0.94 0.94 96 1003.5
20260507080403 66 133 0.9 7.8 0.00 0.94 0.94 96 1003.1
20260507075503 66 126 3.5 9.6 0.00 0.94 0.94 96 1002.8
20260507074603 67 172 1.7 7.0 0.00 0.94 0.94 96 1002.6
20260507073703 67 140 1.7 5.2 0.00 0.94 0.94 96 1001.8
20260507072803 67 111 0.9 3.5 0.00 0.94 0.94 96 1002.0
20260507071903 67 113 0.9 3.5 0.00 0.94 0.94 96 1001.9
20260507071003 67 101 0.9 4.3 0.00 0.94 0.94 96 1001.7
20260507065203 67 136 0.9 3.5 0.00 0.94 0.94 96 1001.9
20260507064303 68 108 1.7 3.5 0.00 0.94 0.94 96 1001.8
20260507063403 68 117 0.9 3.5 0.00 0.94 0.94 96 1001.6
20260507062503 68 117 0.9 1.7 0.01 0.96 0.94 96 1001.4
20260507061603 68 147 0.0 1.7 0.01 0.97 0.94 96 1001.2
20260507060703 68 108 0.9 5.2 0.01 0.97 0.94 96 1001.5
20260507055803 67 142 1.7 2.6 0.01 0.97 0.94 96 1001.4
20260507054903 68 134 0.0 1.7 0.01 0.97 0.94 96 1001.7
20260507054003 67 166 0.0 3.5 0.01 0.97 0.94 96 1001.6
20260507053103 68 154 0.0 4.3 0.00 0.96 0.93 95 1001.8
20260507052203 68 115 0.0 1.7 0.00 0.96 0.93 95 1001.4
20260507051303 68 116 0.0 3.5 0.14 0.96 0.93 95 1001.6
20260507050403 69 151 0.0 7.0 0.46 0.96 0.93 95 1001.6
20260507045503 69 158 3.5 8.7 0.67 0.96 0.93 95 1001.4
20260507044603 70 145 3.5 9.6 0.87 0.96 0.93 93 1000.8
20260507043703 70 165 3.5 11.3 0.93 0.96 0.93 93 1001.0
20260507042803 69 229 1.7 9.6 0.93 0.96 0.93 93 1000.6
20260507041903 69 155 2.6 16.5 0.90 0.92 0.91 92 1000.6
20260507041003 70 169 6.1 10.4 0.59 0.61 0.63 91 1001.2
20260507035203 73 258 3.5 7.8 0.17 0.19 0.20 88 999.6
20260507034303 75 346 2.6 7.0 0.02 0.05 0.04 83 999.0
20260507033403 76 29 1.7 4.3 0.00 0.02 0.00 81 999.2
20260507032503 77 300 1.7 6.1 0.00 0.02 0.00 78 999.1
20260507031603 77 322 1.7 4.3 0.00 0.02 0.00 76 999.8
20260507030703 77 288 0.9 3.5 0.00 0.02 0.00 75 999.3
20260507025803 77 286 0.0 3.5 0.00 0.02 0.02 75 999.9
20260507024902 78 29 0.9 2.6 0.00 0.02 0.02 75 1000.3
20260507024002 78 3 0.9 3.5 0.00 0.02 0.02 75 1000.2
20260507023102 78 299 1.7 5.2 0.00 0.02 0.02 75 1000.9
20260507022203 78 359 0.9 3.5 0.00 0.02 0.02 75 1000.8
20260507021302 78 34 0.9 5.2 0.00 0.02 0.02 75 1001.1
20260507020402 78 303 0.9 4.3 0.00 0.02 0.02 75 1001.1
20260507015503 78 351 0.9 3.5 0.00 0.02 0.02 75 1001.5
20260507014602 78 338 0.9 4.3 0.00 0.02 0.02 75 1001.6
20260507013703 78 341 2.6 4.3 0.00 0.02 0.02 75 1001.7
20260507012802 78 34 1.7 6.1 0.00 0.02 0.02 75 1001.2
20260507011902 79 358 0.9 6.1 0.00 0.02 0.02 74 1001.3
20260507011002 79 1 1.7 3.5 0.00 0.02 0.02 75 1001.4
20260507005202 79 345 0.9 2.6 0.00 0.02 0.02 75 1002.1
20260507004303 79 199 0.9 3.5 0.00 0.02 0.02 73 1002.8
20260507003402 79 92 0.0 1.7 0.00 0.02 0.02 73 1002.4
20260507002503 80 281 0.0 1.7 0.00 0.02 0.02 72 1002.4
20260507001602 80 292 0.9 1.7 0.00 0.02 0.02 72 1002.2
20260507000702 80 320 0.0 3.5 0.00 0.02 0.02 72 1001.9
20260506235803 80 333 1.7 3.5 0.00 0.02 0.02 72 1001.9
20260506234902 80 9 0.0 4.3 0.00 0.02 0.02 72 1001.6
20260506234003 80 353 2.6 7.0 0.00 0.02 0.02 71 1001.4
20260506233102 80 258 1.7 6.1 0.00 0.02 0.02 71 1001.5
20260506232202 80 322 0.9 5.2 0.00 0.02 0.02 71 1001.6
20260506231302 80 303 1.7 5.2 0.00 0.02 0.02 71 1001.5
20260506230402 81 328 0.0 6.1 0.00 0.02 0.02 69 1001.5
20260506225502 81 310 2.6 7.8 0.00 0.02 0.02 69 1001.2